Wind_Speed
35 36 38 39 39 40 41 39 34 33 31 30 29 29 29 30 30 29 28 28 28 28 27 28 28 28 29 30 31 33 34 35 37 38 40 42 44 46 48 50 52 54 55 57 59 61 63 65 66 68 70 71 73 75 76 76 76 76 76 76 75 75 75 74 74 74 74 74 75 75 76 76 76 77 77 79 80 81 83 84 85 85 85 86 87 87 88 90
36 38 38 39 41 42 40 35 31 30 29 28 28 28 29 30 29 28 27 26 26 26 26 27 28 28 29 30 32 33 35 36 37 40 42 44 46 48 50 52 54 56 57 60 61 63 65 67 69 71 73 74 74 74 74 73 72 71 70 69 69 69 69 69 69 69 69 70 71 71 72 73 73 74 75 76 77 79 81 82 82 83 83 84 85 86 87 88
39 40 41 42 43 39 35 30 29 28 27 27 26 28 29 29 27 26 25 25 25 25 26 27 28 29 29 30 32 33 35 37 39 42 44 46 48 49 51 54 56 58 60 62 65 67 68 70 71 73 73 72 71 69 67 66 65 65 65 65 66 66 67 67 68 68 68 69 69 70 71 71 72 73 74 75 76 78 80 81 81 82 83 84 85 86 86 87
41 42 42 42 38 34 31 29 27 27 26 26 27 28 28 27 25 24 24 24 24 25 26 27 28 28 29 31 32 34 37 39 41 43 45 47 49 51 53 55 58 60 63 65 67 68 70 71 71 70 68 66 64 63 62 62 63 63 64 64 65 66 67 67 68 68 68 68 68 68 69 70 70 71 72 74 76 78 80 81 82 83 84 85 86 86 87 88
42 42 40 37 34 31 30 28 27 26 26 25 27 29 29 26 24 23 23 24 25 25 26 27 27 28 30 31 34 36 39 41 43 45 46 48 50 53 55 58 60 62 65 66 68 70 70 68 66 63 62 61 60 61 62 63 63 64 64 64 65 65 65 65 66 66 66 66 66 66 67 68 69 70 71 73 75 77 79 81 83 84 86 87 88 89 89 91
42 41 39 35 33 31 30 29 28 26 25 25 28 29 27 24 23 22 22 23 24 25 25 26 27 29 31 33 36 38 40 42 44 46 47 49 52 55 58 60 63 64 66 68 68 67 64 61 59 58 59 60 61 61 62 62 62 62 62 63 63 63 63 63 64 64 64 65 65 66 67 68 69 70 71 73 75 77 79 81 83 84 86 88 89 90 92 93
42 41 38 35 33 32 31 30 28 26 26 28 30 28 25 23 22 22 22 23 23 24 25 26 28 31 33 35 38 39 41 43 45 46 49 51 54 57 60 62 64 66 66 65 62 59 56 56 56 57 58 59 59 60 59 59 59 60 60 60 61 61 61 62 62 63 64 64 65 66 67 68 69 71 72 73 75 77 79 81 83 85 86 88 89 91 92 94
41 40 38 35 33 32 31 30 28 27 28 30 29 26 24 23 22 23 23 23 24 24 26 28 30 33 35 37 38 40 41 43 46 48 51 54 57 59 61 63 65 64 61 57 55 53 54 54 55 56 56 57 57 57 57 57 57 58 58 59 59 60 60 61 61 62 63 64 65 66 67 69 70 71 72 74 76 78 80 81 83 85 86 88 90 91 93 95
40 39 37 34 33 31 31 29 28 28 30 31 28 24 23 23 23 23 23 24 25 26 28 30 32 34 36 37 38 40 43 45 48 51 54 57 59 61 63 63 60 56 53 52 52 52 53 53 54 54 54 54 54 54 54 55 55 56 57 58 59 59 60 60 61 62 63 64 65 66 68 69 71 72 73 74 76 78 80 82 83 84 86 87 89 91 93 94
38 37 36 34 32 31 29 28 28 29 31 31 27 24 23 23 23 23 24 24 25 27 29 31 32 34 35 37 40 42 45 48 51 53 56 58 60 61 59 56 52 50 49 50 50 50 51 51 51 51 51 50 50 51 52 53 55 56 58 59 60 60 60 61 61 62 62 63 64 65 68 70 71 72 73 75 77 78 80 81 82 84 85 87 88 90 92 93
37 36 36 34 32 30 28 28 29 30 31 29 26 24 23 23 23 24 24 25 26 28 30 31 33 35 36 39 41 44 48 50 52 54 56 58 58 55 51 48 47 47 48 48 48 48 48 48 48 48 47 48 49 51 52 54 56 58 59 60 61 62 61 61 61 62 62 63 63 64 66 69 71 72 73 75 77 78 79 81 82 83 84 86 87 89 90 92
37 36 35 34 31 29 28 29 30 30 31 28 25 24 23 24 24 24 25 25 27 29 30 32 34 36 38 41 44 47 49 50 52 54 55 53 50 46 45 45 46 45 45 45 45 45 45 45 45 46 48 50 51 52 53 54 56 58 60 61 63 65 64 62 63 64 65 65 64 63 64 68 70 71 73 75 77 77 78 79 81 82 83 84 85 87 88 90
37 36 35 33 30 28 28 29 29 29 29 27 25 24 23 24 24 24 25 26 27 29 31 33 34 37 40 43 46 47 49 51 53 52 49 45 43 43 43 43 43 43 43 43 42 42 43 45 47 49 51 52 53 54 55 56 57 60 63 64 65 69 71 70 69 71 72 71 69 65 63 65 68 70 73 75 76 77 78 79 80 80 81 82 83 84 86 87
37 35 34 32 30 29 29 29 29 28 28 26 24 23 24 24 23 24 24 26 28 30 32 34 36 39 42 44 45 47 50 50 48 43 41 40 41 41 41 40 40 40 41 42 42 43 45 47 50 52 53 53 54 55 57 59 61 63 67 69 69 72 76 78 78 78 79 78 75 71 68 69 71 72 74 74 74 75 76 77 77 78 78 78 79 80 82 84
37 35 34 33 32 31 30 29 28 27 27 25 23 23 23 23 23 24 25 27 29 31 33 35 38 40 42 44 46 48 46 42 38 37 38 39 38 38 37 37 38 39 41 43 45 46 48 50 51 52 54 56 57 59 63 66 69 69 70 73 75 75 77 81 83 82 81 80 79 77 74 75 77 77 78 76 75 74 74 74 74 74 74 74 75 76 78 80
37 36 34 33 33 32 30 28 27 27 26 24 22 22 22 23 24 25 26 28 30 32 34 36 38 40 42 44 44 41 37 34 34 35 36 35 34 34 35 37 39 41 43 44 46 47 48 49 50 53 56 60 63 66 68 70 72 74 75 77 80 81 80 82 86 85 83 82 82 80 78 79 80 80 80 79 78 76 75 74 73 72 72 72 72 73 74 76
37 35 33 33 32 31 29 28 28 28 27 24 22 21 22 23 24 25 27 29 31 33 35 36 38 40 41 40 36 33 31 32 33 33 32 31 31 33 35 38 41 43 44 44 45 46 48 50 53 57 61 65 67 68 68 70 72 75 78 81 83 85 84 84 86 85 85 86 85 83 82 82 82 80 80 79 79 78 77 75 74 72 71 70 70 71 72 73
35 34 32 31 31 30 28 28 28 27 26 24 23 22 23 24 25 26 27 29 31 33 34 36 38 38 36 32 30 30 30 30 30 29 29 30 31 35 38 41 43 45 45 46 48 49 51 55 59 64 67 68 70 71 72 74 77 79 81 82 82 86 89 88 87 85 85 88 87 84 83 83 82 80 78 78 77 77 76 74 73 71 70 69 69 69 69 70
33 32 31 30 29 28 27 27 26 26 25 24 23 24 24 24 25 26 28 29 31 32 34 35 35 32 29 27 28 28 27 26 26 26 28 30 33 37 39 41 43 44 46 49 51 53 57 61 64 66 67 69 72 75 77 79 82 84 86 87 87 89 92 92 91 89 88 89 88 85 83 83 81 79 78 76 75 75 73 72 71 70 69 68 68 67 68 68
31 31 31 29 28 27 27 26 26 26 24 23 23 24 24 24 25 26 27 29 30 31 33 32 29 26 25 25 25 24 23 23 24 26 29 31 34 37 38 41 44 46 49 52 54 57 61 63 65 67 68 72 76 79 81 82 85 87 89 92 93 93 96 97 95 95 94 93 90 87 85 84 81 78 77 75 73 72 71 70 69 68 68 67 67 66 67 67
30 30 30 29 28 28 26 25 26 25 23 22 22 22 22 23 24 25 26 28 29 30 28 25 23 23 22 21 21 21 22 23 25 28 29 31 34 36 38 43 47 49 51 54 57 60 64 66 67 69 72 75 78 81 84 85 87 90 93 95 96 96 97 99 100 101 101 97 94 91 89 87 83 79 76 73 71 70 69 68 67 66 66 66 65 65 66 66
29 29 30 29 29 27 26 25 26 24 22 21 20 20 20 21 23 24 25 27 27 25 21 20 20 19 18 18 18 19 21 22 25 28 30 31 33 35 39 45 49 51 53 58 61 64 67 69 70 73 76 78 80 83 85 88 90 92 94 95 97 99 99 99 101 104 105 102 97 94 92 90 85 80 76 73 71 69 67 66 65 65 65 65 65 65 65 65
28 28 28 28 28 27 26 25 23 20 19 17 17 18 19 21 22 23 24 24 21 18 17 18 17 16 15 16 17 19 22 25 28 30 32 33 34 36 41 47 51 53 55 60 64 67 69 71 74 76 78 80 82 84 86 90 92 93 95 96 99 102 103 101 101 104 106 105 101 96 92 91 86 80 76 74 71 69 68 66 65 65 64 64 64 64 64 64
27 26 26 26 26 25 24 21 18 15 14 14 16 17 18 19 21 22 21 17 15 15 15 14 13 13 15 17 20 23 26 29 31 32 33 35 36 39 43 48 52 55 57 61 66 69 72 74 77 79 81 83 84 85 87 89 92 94 96 98 100 104 107 106 105 106 106 106 103 96 90 88 84 78 75 72 70 68 67 67 66 65 64 64 64 64 63 63
25 25 25 24 22 20 18 15 12 12 12 14 16 17 18 19 20 17 14 12 12 12 11 11 12 14 16 19 23 26 28 29 31 34 36 38 40 42 44 49 53 56 59 62 67 71 74 77 79 81 83 85 86 87 88 90 91 94 97 100 103 106 108 108 108 108 107 106 104 97 90 86 81 76 73 70 68 67 66 66 65 65 64 63 63 62 62 62
23 22 21 19 17 14 12 10 10 11 13 14 15 16 17 17 14 10 10 10 10 9 10 12 15 17 20 23 25 27 28 29 31 34 37 40 43 45 47 50 54 58 62 65 68 72 76 79 82 84 86 87 88 89 89 91 93 96 100 102 105 107 108 109 110 109 108 106 104 99 93 87 80 74 71 67 65 65 65 65 65 65 65 63 62 61 60 60
21 19 17 15 13 10 9 9 10 12 12 13 15 15 13 9 8 8 8 8 7 8 11 14 16 18 21 23 25 26 28 30 32 35 39 42 45 48 50 53 56 60 63 65 69 73 77 80 83 86 88 89 89 90 91 93 96 100 103 104 106 108 109 109 110 109 107 104 102 98 94 89 82 75 70 67 65 65 65 65 65 64 64 63 62 61 61 61
19 17 15 12 10 9 10 10 11 11 11 13 12 9 5 5 6 6 5 5 6 9 12 14 17 19 21 23 25 27 29 32 36 39 42 44 47 51 54 56 60 62 63 65 69 74 77 81 84 86 89 90 91 92 94 96 99 101 104 106 108 109 109 109 110 109 107 104 102 98 94 90 84 78 72 69 66 65 65 65 65 64 64 63 63 63 63 63
18 15 13 11 10 10 10 10 10 10 10 10 6 2 4 4 4 3 3 5 8 12 14 16 18 20 22 25 27 30 33 36 38 41 43 46 50 53 56 60 63 65 65 66 70 74 77 81 84 87 89 92 94 96 97 99 101 102 103 106 110 111 110 110 110 109 107 106 105 102 99 94 88 81 75 71 67 65 65 64 64 63 61 61 61 61 62 63
16 14 12 11 11 10 10 9 9 9 7 3 1 4 3 2 1 2 5 9 12 14 15 16 18 21 23 27 30 33 37 39 42 44 47 50 53 56 59 62 64 66 67 68 69 73 77 81 85 87 89 92 96 99 100 101 102 103 103 104 106 109 109 110 111 112 111 111 111 108 105 100 92 84 78 73 70 67 65 62 60 58 57 57 57 57 58 59
16 14 12 11 10 9 9 8 7 5 3 3 5 3 2 3 3 5 9 11 12 14 14 16 18 21 25 29 34 37 40 43 45 48 50 52 54 56 57 59 60 63 65 67 69 73 78 82 85 87 90 92 96 99 101 102 104 105 105 104 104 105 107 109 112 115 116 117 117 112 107 102 95 88 83 78 75 71 67 63 60 58 57 57 57 57 57 57
15 13 12 10 9 8 7 6 5 4 6 6 5 4 4 5 6 8 10 11 12 13 14 17 20 24 28 33 36 39 42 44 46 48 49 50 51 52 54 56 58 61 64 66 70 74 78 82 85 88 90 93 95 97 100 103 105 107 110 110 109 110 112 114 117 120 121 120 118 115 109 104 99 92 86 81 77 73 69 66 63 60 59 59 59 59 59 59
14 12 10 8 8 7 6 6 6 8 8 6 5 5 6 7 7 8 10 11 12 13 16 19 23 27 31 34 37 40 42 44 46 48 50 51 53 55 56 58 60 63 66 69 71 73 77 81 85 88 91 94 97 99 102 105 109 112 115 117 118 119 121 123 124 126 126 122 118 116 111 106 101 95 89 84 79 75 72 68 64 61 60 59 59 59 59 60
12 10 9 8 7 7 8 8 9 9 8 7 6 6 8 8 8 8 10 11 13 14 17 21 25 30 33 34 36 39 41 43 46 49 51 53 54 56 57 59 61 64 67 70 73 75 78 82 86 89 93 96 99 103 106 109 111 114 118 120 122 123 124 128 130 130 130 126 119 116 113 109 104 99 94 89 84 79 74 70 66 63 62 62 62 62 62 61
10 9 9 8 9 9 10 10 10 9 8 7 7 8 9 8 7 8 10 11 13 15 19 22 27 31 33 34 36 38 40 43 46 48 51 53 54 55 57 59 62 65 67 70 74 78 81 84 88 91 94 97 100 104 107 109 112 115 117 120 122 123 123 125 128 128 128 128 123 119 115 111 106 101 96 90 86 82 78 74 71 68 67 67 67 66 66 65
11 10 11 11 12 12 11 11 10 9 8 8 8 8 9 8 7 8 10 12 14 16 20 23 27 31 33 34 36 38 40 43 46 48 50 52 54 56 58 60 63 66 68 71 74 78 81 85 89 92 95 97 100 104 107 110 112 114 117 120 123 125 125 123 124 125 125 128 128 125 120 116 110 104 99 93 89 86 83 79 76 72 70 70 69 68 67 65
13 14 14 15 14 13 12 10 9 8 8 8 8 9 9 8 7 9 11 12 14 17 20 24 27 30 33 35 37 39 41 44 46 48 50 52 54 56 58 61 64 66 69 72 75 78 81 84 87 90 94 97 100 104 107 110 112 114 118 122 124 126 127 127 127 129 129 129 130 130 127 122 116 110 105 99 94 91 88 84 79 74 71 69 68 67 65 62
16 17 17 16 15 14 12 10 9 8 9 8 8 9 9 7 8 9 11 13 15 18 21 24 27 30 33 36 37 40 42 45 47 48 50 52 54 56 58 61 64 67 70 73 76 78 81 83 86 89 93 96 100 103 106 108 112 115 119 123 126 128 130 131 133 135 135 133 131 130 129 126 122 117 112 107 101 96 92 87 82 77 71 68 67 66 65 61
19 19 18 17 15 14 12 11 10 9 9 9 9 9 9 8 8 10 12 14 16 19 22 25 27 30 33 36 38 40 43 45 46 48 51 53 55 57 59 62 64 67 70 72 75 78 81 83 86 89 92 95 98 101 104 107 110 114 117 119 124 127 130 132 134 136 138 138 136 134 132 131 128 124 119 114 108 101 96 91 86 81 75 71 68 67 65 61
21 20 19 17 15 13 12 12 11 10 9 9 9 9 8 7 8 10 13 15 18 21 23 26 28 31 33 35 37 40 43 45 46 48 50 53 56 58 60 62 64 67 70 72 75 77 81 84 86 89 92 95 98 100 103 106 108 110 114 117 121 124 127 129 131 132 136 140 143 142 139 136 134 130 126 120 114 106 100 95 90 86 81 77 73 70 68 64
21 20 18 16 13 13 12 12 11 11 10 8 9 9 7 7 8 11 14 17 20 22 24 27 29 32 34 35 37 40 44 46 47 48 50 52 55 58 60 62 65 67 70 72 74 77 80 83 86 88 91 94 98 100 103 105 108 111 115 118 121 124 127 129 130 131 133 137 142 145 144 141 138 134 130 125 119 111 104 98 94 90 85 81 78 75 72 69
22 20 18 15 13 12 12 12 12 11 9 8 8 7 6 7 9 12 15 18 20 23 25 27 30 32 34 36 38 41 44 47 48 49 50 51 53 57 60 62 65 68 70 73 75 77 79 81 84 87 91 93 95 98 101 104 108 112 116 120 123 126 129 132 133 133 132 132 136 141 143 142 139 136 132 128 123 116 109 102 97 93 89 85 81 79 76 73
22 20 18 16 14 13 12 12 12 11 8 7 7 5 5 7 10 13 15 18 20 22 25 27 30 32 34 36 38 41 43 46 49 50 51 51 52 55 59 62 65 68 71 74 76 78 79 81 83 85 87 90 93 96 101 105 109 112 116 120 123 126 128 131 133 135 134 132 133 137 140 141 139 137 134 130 126 120 113 107 101 96 92 87 83 80 78 76
21 20 18 16 15 14 12 12 11 9 7 6 5 4 5 7 9 12 15 17 19 22 24 27 29 32 34 36 39 41 42 45 48 50 52 52 52 54 58 61 64 67 71 75 78 80 81 83 84 86 87 90 93 97 101 106 111 114 117 120 123 125 127 128 129 132 135 135 133 134 138 141 140 138 135 132 128 123 117 111 104 99 94 90 86 83 81 79
20 19 18 17 15 14 12 11 9 7 6 5 3 3 5 6 9 11 14 16 19 22 24 27 30 32 35 37 39 41 42 44 47 49 52 53 53 55 57 60 64 67 70 74 78 81 84 86 88 91 93 96 100 103 105 108 112 115 118 120 121 123 125 127 128 130 133 135 134 134 137 139 140 138 136 133 129 124 119 114 108 103 98 94 90 86 83 81
20 18 17 16 15 13 11 10 8 6 5 4 2 2 4 6 8 11 13 16 19 22 25 28 30 32 35 37 39 41 43 44 46 48 51 53 53 55 57 60 64 67 70 73 77 81 84 88 90 93 96 99 102 104 106 108 110 113 116 119 120 123 125 126 128 129 130 132 134 135 136 138 140 140 137 135 132 128 123 117 112 106 102 97 94 90 86 84
20 18 16 16 14 13 10 9 8 7 6 4 1 1 3 5 8 11 14 17 20 23 26 28 30 32 34 36 39 41 43 44 46 47 50 51 53 55 58 61 64 67 70 72 76 79 83 87 90 93 96 98 100 102 105 106 108 111 114 117 119 122 124 126 129 130 130 131 134 135 136 137 140 142 141 139 136 133 129 124 118 112 107 102 98 94 91 87
19 17 16 15 14 13 10 9 7 7 6 4 2 2 4 6 8 11 15 18 22 24 26 28 30 32 34 36 38 41 43 45 46 48 50 51 53 55 57 60 63 66 69 72 75 78 81 85 88 92 94 97 99 101 103 105 107 109 112 116 118 120 122 126 129 131 132 133 135 137 137 137 139 142 144 144 142 139 135 131 125 119 113 107 102 98 94 90
19 17 15 14 14 13 11 9 7 7 7 5 3 3 5 7 10 13 16 20 23 24 26 28 30 31 33 35 38 40 43 45 47 48 50 51 53 55 57 60 62 65 68 71 74 77 80 83 86 89 92 95 98 100 102 104 106 108 110 113 117 119 122 125 128 130 131 133 135 136 137 137 137 139 143 146 145 142 138 134 129 123 117 111 106 100 96 91
18 17 15 14 13 13 12 9 8 7 7 7 5 5 7 9 11 14 17 21 23 24 26 28 30 32 33 35 37 39 42 45 47 48 50 51 53 55 58 60 62 65 68 71 74 77 79 82 85 88 90 93 95 98 101 104 106 107 108 111 115 118 121 124 128 130 131 131 132 134 135 135 135 137 141 144 146 144 140 135 131 126 121 115 109 103 97 93
18 17 15 14 13 12 12 10 9 9 9 8 7 8 9 11 13 16 18 21 22 23 25 28 30 32 34 35 37 39 42 44 46 48 50 51 53 56 59 61 63 65 68 71 74 76 78 81 83 86 89 91 93 96 99 103 105 106 107 110 114 117 121 124 128 131 132 132 132 133 134 136 136 136 138 141 143 143 141 137 133 130 125 118 111 105 100 95
18 17 16 14 13 12 11 11 11 10 10 10 10 10 11 13 14 16 19 20 21 23 26 28 30 32 34 36 37 39 41 44 46 48 49 51 53 56 59 61 63 65 67 70 73 75 78 80 82 85 87 90 92 95 98 100 102 104 108 111 114 118 121 123 126 130 132 133 134 134 135 138 139 138 136 138 140 142 142 139 136 133 128 122 115 109 104 99
Wind_Direction
201 202 203 204 204 207 211 210 208 212 218 222 226 230 232 234 238 241 244 248 251 255 257 260 262 265 268 271 274 276 278 280 282 284 286 288 290 291 291 291 292 292 292 292 293 293 294 295 297 298 299 299 299 299 298 297 296 296 295 294 293 292 292 291 290 289 289 289 288 288 288 287 287 286 286 285 284 283 282 281 280 279 279 278 277 276 275 274
201 204 204 206 207 209 212 211 210 213 218 223 228 232 234 236 239 243 247 251 255 259 261 264 266 269 272 275 277 280 282 284 287 290 292 293 294 295 296 296 296 297 297 298 298 299 300 301 302 302 301 301 300 299 299 298 297 296 295 294 294 293 292 292 292 292 292 292 293 293 293 293 292 292 291 290 289 287 286 284 283 282 281 280 278 277 276 274
201 205 204 207 209 209 210 212 214 217 220 225 231 234 236 238 242 247 251 254 258 262 265 268 271 273 276 279 281 284 287 290 292 294 295 297 298 298 299 299 300 300 300 301 302 303 303 303 303 303 302 302 301 301 300 299 298 297 297 297 297 298 298 299 299 299 299 300 299 299 298 298 297 296 295 293 292 290 289 287 286 285 283 282 280 278 277 276
201 207 207 207 208 207 208 211 215 220 224 229 233 236 237 240 244 249 253 257 261 265 269 272 274 277 280 283 286 289 292 294 295 297 298 299 300 301 301 301 301 302 302 303 304 304 304 304 304 304 304 303 302 302 302 302 303 304 304 305 305 305 305 305 304 304 303 302 301 300 299 298 297 296 295 294 292 290 289 288 287 286 284 283 281 280 278 276
202 208 210 209 207 205 206 210 215 220 225 230 233 234 235 239 244 250 254 259 264 268 271 275 278 281 284 286 289 292 294 296 298 299 300 301 301 301 301 301 302 302 304 305 306 306 306 306 306 305 305 306 307 308 310 311 311 311 310 309 308 306 305 304 303 302 301 301 300 299 299 298 297 296 295 294 292 290 289 287 286 284 283 282 281 280 278 276
202 207 210 208 206 204 204 209 214 219 224 227 229 231 234 239 246 250 256 261 266 270 274 277 280 283 286 290 292 295 297 299 299 300 301 301 300 301 301 302 303 305 307 308 308 308 308 307 308 310 312 314 315 315 314 313 311 309 307 305 304 303 302 301 300 300 300 300 300 300 299 299 298 296 295 294 292 290 288 286 285 283 281 280 279 278 276 275
202 205 208 207 206 204 205 209 214 220 224 227 229 232 237 242 247 252 256 260 265 270 274 279 283 287 290 293 296 298 299 299 300 300 300 301 301 302 303 305 307 309 309 309 308 309 310 313 315 317 318 317 316 314 311 309 307 305 304 303 302 301 300 300 300 301 301 302 302 302 301 300 298 297 296 294 292 289 287 285 283 282 280 279 277 276 275 273
202 204 206 206 206 205 206 209 215 222 227 231 232 235 239 244 250 253 257 261 266 270 276 281 286 289 292 295 298 298 299 300 300 301 301 302 303 305 307 309 310 310 310 310 312 315 318 320 320 319 317 315 313 311 309 308 307 306 305 304 304 303 303 304 305 306 307 307 306 305 304 302 300 298 297 294 292 289 287 285 282 281 279 278 276 275 274 273
202 203 205 206 206 207 208 211 217 225 231 233 234 237 242 246 251 255 259 263 268 273 279 284 288 292 295 297 297 298 299 300 301 302 304 305 307 308 310 310 311 312 315 318 320 322 321 320 318 317 315 313 312 311 311 311 311 311 312 312 312 312 312 312 313 313 312 312 310 309 307 304 302 300 297 295 292 289 287 284 282 281 279 277 276 274 273 272
202 202 204 206 207 208 209 213 220 227 233 236 237 239 244 248 252 257 261 266 272 278 282 286 291 294 296 296 297 299 301 302 303 305 307 309 310 310 311 313 316 319 322 323 323 322 320 319 318 317 316 316 317 318 319 320 322 322 322 322 322 321 320 319 319 318 317 315 314 312 310 307 304 301 298 295 292 290 288 286 284 282 280 278 277 275 273 272
201 202 204 206 208 209 210 216 223 230 236 238 240 243 247 251 255 259 265 271 277 281 286 289 292 294 295 297 299 302 303 305 307 308 310 310 311 313 316 320 323 325 324 323 322 321 321 321 321 321 323 325 328 329 330 330 330 329 329 328 328 326 324 323 323 322 320 319 316 315 313 309 305 302 299 295 292 290 289 287 286 284 282 280 278 277 275 274
201 202 203 205 207 208 213 220 226 232 237 239 241 245 250 255 259 264 270 276 281 285 289 291 293 296 298 300 302 304 305 307 309 310 311 312 316 321 324 325 326 326 324 323 323 324 324 325 327 330 333 335 336 336 336 336 335 334 333 333 333 331 329 328 328 326 325 323 320 318 315 310 305 302 298 295 293 291 289 288 287 285 283 282 280 278 277 275
201 202 203 204 206 209 215 222 227 233 238 239 241 246 251 257 263 269 274 279 284 286 289 292 296 299 301 303 304 306 307 309 311 313 316 320 324 327 327 327 326 325 325 326 328 330 331 333 337 339 339 340 341 341 341 340 339 339 339 338 338 337 335 335 335 334 332 329 326 323 319 312 306 302 298 296 294 292 291 290 288 287 285 284 282 281 279 278
200 201 201 202 204 209 215 221 227 233 238 240 243 247 253 259 265 271 277 281 284 287 291 295 299 301 303 304 306 308 310 313 317 321 325 327 328 329 329 327 327 329 331 334 336 338 340 342 343 343 343 343 344 345 344 344 344 344 344 343 342 342 341 339 340 339 337 334 331 328 324 316 309 305 301 299 297 295 294 293 291 290 288 286 285 283 281 280
199 200 200 200 203 208 213 220 226 232 238 242 245 250 255 261 266 272 277 281 285 290 295 298 301 303 305 307 310 313 316 320 323 326 328 329 330 330 329 330 334 337 341 344 345 347 348 347 346 346 346 347 348 349 350 350 349 348 347 346 345 345 345 343 342 342 340 337 334 331 327 321 315 311 307 305 302 300 298 295 293 292 290 288 286 284 282 280
198 199 198 199 202 208 213 219 225 232 237 241 245 251 257 262 267 273 278 283 288 293 298 301 303 305 308 311 315 318 320 323 326 329 329 330 333 334 335 339 342 345 349 350 350 350 349 347 347 349 351 352 354 355 355 354 351 349 349 349 348 347 347 346 344 344 343 340 338 334 329 322 318 315 313 311 308 305 302 300 297 295 293 290 287 285 283 281
196 198 197 198 202 208 214 220 226 232 237 241 246 251 258 263 269 275 281 287 292 297 300 303 306 309 313 316 318 320 323 327 330 331 332 335 338 339 342 346 348 352 353 352 350 350 349 350 353 355 356 357 358 357 356 355 353 352 352 352 350 348 348 348 346 347 346 343 340 336 330 324 320 319 316 314 311 309 306 304 302 299 296 293 290 288 285 283
194 195 196 197 201 207 213 220 227 233 237 241 246 252 259 265 272 279 286 291 296 300 303 306 310 314 316 318 321 326 331 333 333 335 339 344 345 346 350 353 355 357 355 353 354 355 356 359 0 1 1 0 359 357 357 356 355 354 353 353 352 350 349 349 349 349 349 345 342 338 331 325 323 321 319 316 313 311 309 307 305 302 299 297 294 291 288 286
190 192 193 195 199 205 212 219 226 232 237 242 248 255 261 269 277 284 289 294 299 303 307 311 313 315 319 325 331 335 335 333 335 343 348 349 350 355 357 357 358 359 359 360 1 1 3 4 4 4 3 1 359 358 358 358 356 355 354 353 354 352 350 351 351 351 350 347 343 339 333 327 325 324 321 319 316 314 311 308 306 304 302 299 296 294 291 288
185 189 190 192 197 204 212 220 228 234 239 245 252 259 267 275 283 289 294 299 303 307 311 313 317 323 330 336 337 334 330 335 346 352 352 352 357 360 358 359 2 4 5 5 4 5 5 6 5 4 3 2 1 360 359 359 357 356 355 354 354 353 352 351 351 351 351 348 345 341 335 330 328 327 325 322 319 315 313 310 308 306 303 301 298 295 292 290
184 188 190 192 198 206 213 221 230 235 241 249 257 266 275 282 288 293 299 304 308 312 314 319 329 337 338 337 334 334 340 350 355 354 354 358 1 1 1 4 8 9 7 6 6 7 7 6 5 4 4 4 3 1 360 359 358 357 356 355 354 353 353 353 352 352 351 349 347 344 338 334 332 332 329 325 321 318 315 313 310 308 305 302 300 297 295 292
185 188 191 195 201 207 214 223 231 237 244 254 264 274 281 287 293 299 305 309 311 314 321 333 340 339 335 334 337 343 350 351 352 355 359 3 4 3 5 8 10 10 7 7 9 9 9 8 7 6 6 5 4 2 1 360 359 358 356 355 354 353 354 355 354 353 350 349 349 347 341 337 337 335 331 327 324 321 318 315 313 310 308 305 303 300 298 296
183 186 189 195 202 209 216 225 234 242 250 261 271 280 286 293 298 303 307 309 313 322 335 340 339 336 338 342 346 350 354 358 2 6 7 7 6 5 7 10 12 11 9 10 11 10 9 9 8 8 7 7 6 4 2 1 0 359 357 356 355 354 355 356 356 354 351 350 350 349 344 339 339 337 333 330 327 324 321 318 315 313 310 308 305 303 300 298
180 182 187 195 203 211 220 229 237 246 257 269 278 284 290 296 300 304 307 313 328 339 342 338 336 342 350 355 359 4 8 10 10 9 9 8 7 6 8 10 13 13 10 11 12 11 10 10 9 9 8 8 7 5 4 3 2 360 358 357 357 356 355 356 357 356 353 351 351 350 346 341 340 339 335 332 329 326 323 320 317 315 312 310 307 305 303 300
178 181 188 196 205 213 220 229 239 253 266 274 280 286 292 298 303 308 317 334 344 344 339 342 352 360 4 8 11 15 16 13 11 10 10 9 9 8 8 9 13 14 12 11 13 12 11 12 11 10 9 9 8 6 5 4 3 2 0 359 359 358 357 356 357 357 354 352 351 351 348 345 343 341 337 334 330 327 324 321 319 317 315 313 311 309 306 304
178 182 189 196 202 209 217 230 247 260 268 274 281 290 297 304 311 325 342 348 348 348 353 7 18 16 16 19 18 17 15 12 11 10 9 9 9 8 7 8 12 15 15 13 13 13 13 13 13 12 11 10 9 8 6 5 5 5 3 2 1 0 359 357 357 357 355 353 351 351 350 348 347 344 339 336 333 329 327 325 323 321 319 317 315 312 309 307
174 179 185 190 196 205 220 238 251 260 268 278 287 296 304 317 341 353 348 343 352 6 17 27 29 23 22 23 20 17 14 11 10 10 10 11 11 11 9 8 11 16 17 15 13 14 14 13 14 13 12 11 10 9 7 7 7 7 6 4 2 2 1 359 357 357 356 354 353 352 352 351 349 347 343 340 337 334 331 329 326 325 323 321 319 317 314 312
168 173 178 185 195 211 227 239 249 260 273 285 292 302 326 359 7 354 329 337 10 27 34 34 30 26 24 22 19 17 15 14 14 14 14 14 14 14 12 9 10 14 16 16 14 14 14 14 14 14 13 11 10 10 9 8 9 9 8 6 4 4 3 1 359 358 357 356 355 354 354 354 352 350 347 344 341 338 335 333 331 329 327 325 322 320 318 315
164 170 178 189 202 217 228 238 251 268 280 285 294 348 36 24 6 327 333 19 38 42 42 36 30 28 26 24 23 20 18 17 17 16 16 16 16 15 14 12 11 11 13 16 15 14 14 14 14 15 14 12 11 10 10 9 9 9 9 8 7 6 5 3 0 359 359 358 358 357 357 357 355 352 350 347 344 342 340 337 334 331 328 326 323 321 319 316
166 174 184 195 205 217 230 245 262 273 274 271 79 74 63 52 23 19 41 50 51 47 41 35 31 29 26 25 23 21 20 19 18 17 16 16 16 16 16 14 12 10 11 14 15 14 14 14 15 15 15 13 12 11 10 9 10 9 9 9 8 7 7 5 2 1 1 1 1 0 359 358 357 354 352 349 348 347 344 340 336 333 330 327 324 321 319 317
172 180 188 196 206 221 239 254 261 253 208 120 97 96 114 107 80 63 62 58 52 45 37 32 29 26 25 25 24 23 23 21 20 19 18 17 16 16 17 15 13 11 11 13 15 15 14 14 14 15 15 14 13 12 11 10 10 9 8 7 7 7 7 6 4 3 4 4 2 2 1 359 358 357 355 353 352 350 347 344 341 338 335 332 329 326 323 320
175 182 188 199 215 232 242 240 219 169 127 115 121 140 131 107 86 74 66 56 47 41 34 31 28 27 27 28 27 26 25 23 23 21 20 18 17 17 17 16 14 13 12 13 15 15 14 14 14 14 15 15 14 13 12 11 10 10 9 7 6 6 7 7 6 6 6 6 4 2 2 1 0 359 357 356 354 352 351 349 346 344 341 337 334 331 328 325
177 184 194 208 220 221 208 185 155 132 126 138 149 140 117 102 89 74 62 52 45 39 33 31 29 29 30 29 28 26 25 24 22 21 19 17 16 16 16 15 15 13 12 12 13 14 14 14 13 13 14 15 14 13 12 11 11 10 10 8 7 7 8 8 9 8 7 7 6 4 3 2 2 1 360 358 357 356 355 353 351 348 344 341 338 335 332 329
182 191 200 204 198 184 166 147 133 133 144 157 148 126 111 100 86 69 58 51 44 37 33 31 30 31 30 29 27 26 25 23 21 19 18 17 16 15 15 15 15 14 13 11 10 12 14 14 14 13 14 14 14 14 13 12 11 11 11 10 9 8 9 10 11 9 7 7 7 6 5 4 4 3 2 0 359 358 358 356 354 352 348 346 343 340 337 334
185 188 186 176 164 153 143 135 137 148 154 145 129 117 107 96 80 65 56 48 41 36 33 32 31 30 28 27 26 25 23 21 19 18 17 16 16 15 15 15 15 15 14 12 11 11 13 14 14 14 13 14 14 14 13 12 12 12 12 11 10 9 9 11 13 12 9 6 7 7 7 6 6 5 4 3 1 360 360 359 358 356 353 350 347 345 342 339
174 167 159 152 144 138 135 140 149 152 143 131 123 112 101 92 75 62 54 46 39 34 32 32 31 29 27 25 24 22 21 19 17 17 16 16 15 15 14 15 15 15 14 13 12 11 12 13 14 13 12 13 14 14 13 13 12 12 12 12 12 10 9 10 13 14 12 9 7 8 8 7 7 7 6 5 4 2 2 1 1 360 357 354 351 348 345 342
158 152 147 143 139 138 143 150 153 144 133 128 121 108 98 87 72 61 52 42 35 32 31 29 28 27 25 23 22 20 19 18 18 17 16 15 14 14 14 14 14 15 15 14 13 12 12 13 13 13 12 12 13 14 13 12 11 11 12 12 12 11 9 8 11 13 14 12 10 9 8 8 8 7 7 7 6 5 4 3 2 1 0 357 354 351 349 345
148 146 143 141 143 146 149 148 144 139 131 128 120 107 96 82 68 58 47 38 33 30 28 27 26 25 23 21 20 19 18 18 17 17 15 14 13 12 12 12 12 13 15 15 14 13 12 12 12 13 12 12 12 13 13 12 12 11 12 12 12 12 11 9 10 12 14 14 12 11 10 9 9 9 8 8 8 7 5 4 3 2 2 0 358 355 353 349
144 143 143 145 149 151 148 141 139 138 133 131 121 105 91 78 65 52 40 35 32 29 27 26 25 23 21 20 19 18 17 16 15 15 14 13 12 11 10 10 11 12 14 15 15 14 13 12 12 12 12 12 12 12 13 13 13 12 12 12 12 12 12 11 10 12 13 13 13 13 12 11 11 10 9 9 8 8 7 5 4 3 2 2 1 360 357 354
144 145 147 150 151 149 144 140 139 139 137 133 117 97 86 74 57 44 38 35 33 31 29 27 25 22 19 18 17 15 13 12 12 12 12 12 11 11 10 9 10 11 12 14 16 15 14 13 12 11 12 11 11 12 13 13 13 12 12 12 12 12 13 13 11 12 13 14 14 13 13 13 12 12 11 9 9 8 8 6 5 4 3 3 3 2 1 359
146 148 149 151 151 147 143 143 143 140 140 131 109 94 82 63 48 41 39 37 34 32 29 26 23 20 17 15 13 12 10 10 9 9 9 10 10 10 10 9 9 10 11 13 14 16 16 14 13 11 12 12 11 11 12 12 12 12 12 12 12 13 13 14 13 12 13 15 15 15 14 14 13 13 12 10 9 9 8 7 6 5 4 4 4 4 3 2
150 150 150 150 148 146 146 146 143 141 141 126 105 93 72 52 44 42 40 37 33 30 26 23 20 17 15 13 10 9 9 8 8 8 8 9 9 9 9 9 9 9 9 10 12 15 16 15 14 13 11 12 11 10 10 11 12 12 12 12 12 13 13 13 13 12 13 15 17 16 15 15 14 14 13 12 10 9 8 8 8 6 6 5 5 5 4 4
153 153 151 149 147 149 150 147 146 147 142 122 104 88 61 46 42 40 38 34 29 25 22 18 16 14 12 11 9 8 8 8 8 8 8 8 8 8 8 8 8 8 8 9 9 12 14 15 15 14 13 12 11 10 10 10 11 13 13 12 12 13 13 13 13 12 12 14 16 17 17 16 16 15 14 14 12 11 9 9 8 8 7 6 6 6 6 5
157 155 152 150 149 151 152 152 157 156 137 120 109 79 51 41 39 36 32 28 24 20 17 15 13 12 10 9 8 7 6 6 6 7 8 8 8 8 8 8 8 8 9 9 8 9 11 12 13 13 13 12 12 12 11 11 11 13 13 13 12 12 13 13 13 13 12 12 15 17 18 17 17 16 15 14 14 13 11 10 9 9 8 7 7 7 7 6
160 156 153 153 154 155 157 163 170 160 139 134 119 64 42 34 32 28 23 20 17 14 12 11 10 10 9 8 7 6 5 4 4 6 7 8 8 8 8 8 8 9 9 10 9 8 9 9 10 10 10 11 11 11 11 11 11 12 13 13 12 12 12 12 13 13 13 12 13 16 18 18 17 17 16 15 15 14 13 12 10 10 9 8 8 8 8 7
163 159 157 157 158 161 166 174 179 170 159 158 130 50 29 22 20 18 15 13 11 9 8 8 8 8 7 7 6 5 4 3 3 4 6 7 7 8 8 8 8 9 9 10 10 9 9 9 9 9 9 9 9 9 10 10 10 11 12 12 12 11 11 12 12 13 13 13 13 15 17 18 18 17 17 16 15 15 15 13 12 11 10 9 9 9 9 8
167 163 160 160 165 171 176 182 185 182 181 181 167 10 3 6 7 8 8 7 6 6 6 5 6 6 6 6 5 4 3 3 2 3 3 5 6 6 6 6 7 8 9 9 10 10 9 9 9 9 9 9 9 9 9 9 9 9 10 12 12 11 11 11 12 12 13 13 14 14 16 18 18 18 17 17 16 16 15 15 14 12 12 11 10 10 9 9
171 167 164 166 173 179 184 188 191 191 193 198 224 313 340 349 355 360 1 2 3 4 4 4 4 4 4 4 3 3 2 2 2 2 2 2 3 3 4 5 6 7 8 9 9 10 9 9 8 9 9 9 9 9 9 9 9 9 9 11 12 11 11 11 12 12 12 13 14 14 15 17 18 18 18 18 17 17 16 16 15 14 13 12 11 11 10 9
174 171 171 175 180 186 191 195 197 202 207 217 246 294 322 335 344 351 356 360 2 2 2 3 3 3 3 2 2 1 1 1 1 1 1 0 1 1 2 4 5 6 7 8 8 9 9 9 8 8 9 9 9 9 9 9 9 8 8 9 10 11 11 11 12 12 13 13 13 14 14 16 18 19 19 20 19 18 17 17 16 15 14 13 12 12 11 10
178 178 180 183 186 191 197 203 209 215 221 231 254 288 312 325 334 343 351 357 359 359 360 0 1 2 2 1 0 360 359 359 359 359 359 359 359 359 0 2 4 5 6 6 7 8 8 9 9 8 8 8 8 9 9 9 9 9 8 8 9 10 11 11 12 12 13 13 13 13 14 15 17 19 20 20 20 19 18 18 17 17 16 15 14 13 11 11
183 185 189 190 192 197 203 211 221 228 233 242 259 283 302 316 327 338 348 354 356 357 357 358 360 1 1 359 359 358 357 357 357 357 356 357 357 358 359 0 2 4 5 5 6 6 7 8 8 8 8 8 7 7 8 8 8 8 8 8 9 10 11 11 11 12 12 13 13 13 13 14 16 18 20 20 20 20 19 18 18 18 17 17 15 14 13 12
189 192 196 197 199 204 211 220 229 236 243 250 262 279 295 309 322 334 344 349 352 353 354 356 357 358 359 358 357 356 356 354 354 354 354 354 354 356 357 359 1 3 4 4 4 5 6 7 8 8 8 8 7 6 6 7 7 7 9 9 9 10 11 11 11 11 12 12 12 12 13 13 14 16 19 20 20 20 20 19 19 19 18 17 17 16 15 13
Height
10709 10711 10714 10717 10719 10721 10722 10727 10732 10735 10738 10740 10741 10742 10743 10743 10744 10745 10746 10747 10748 10749 10750 10750 10751 10750 10750 10749 10747 10746 10744 10743 10742 10740 10739 10738 10736 10734 10732 10730 10727 10725 10722 10720 10717 10714 10712 10709 10706 10703 10699 10696 10691 10687 10682 10677 10672 10666 10661 10655 10650 10645 10641 10636 10632 10628 10622 10617 10612 10607 10603 10598 10593 10589 10585 10580 10575 10570 10565 10561 10559 10557 10555 10552 10550 10548 10545 10543
10708 10709 10712 10715 10718 10720 10723 10729 10733 10735 10737 10739 10740 10741 10741 10742 10743 10744 10745 10746 10747 10748 10749 10749 10749 10748 10747 10746 10744 10743 10741 10740 10739 10738 10736 10735 10733 10731 10728 10725 10723 10720 10718 10715 10712 10710 10707 10704 10700 10696 10691 10687 10682 10678 10672 10667 10662 10657 10652 10647 10641 10636 10631 10627 10622 10618 10613 10608 10602 10597 10592 10587 10582 10577 10573 10568 10562 10556 10551 10548 10545 10542 10540 10538 10535 10533 10530 10528
10706 10707 10710 10712 10716 10721 10726 10730 10733 10735 10737 10738 10739 10740 10740 10741 10742 10743 10744 10745 10746 10746 10747 10746 10746 10745 10744 10743 10742 10740 10739 10738 10737 10735 10733 10731 10729 10727 10724 10721 10718 10716 10713 10710 10708 10705 10701 10697 10693 10688 10683 10678 10673 10668 10663 10658 10653 10648 10643 10638 10632 10626 10621 10616 10612 10607 10602 10597 10592 10586 10581 10575 10570 10565 10560 10555 10549 10542 10536 10533 10531 10528 10525 10522 10519 10517 10515 10514
10704 10705 10708 10711 10717 10724 10728 10730 10732 10734 10735 10737 10738 10738 10738 10740 10741 10743 10743 10744 10744 10744 10744 10744 10743 10742 10741 10740 10739 10738 10737 10736 10734 10732 10730 10728 10726 10723 10720 10717 10715 10712 10709 10706 10703 10699 10695 10690 10685 10680 10675 10670 10665 10660 10655 10649 10644 10638 10633 10628 10623 10617 10612 10607 10602 10597 10592 10588 10582 10577 10571 10565 10559 10554 10548 10542 10536 10529 10523 10519 10516 10513 10509 10505 10503 10501 10500 10497
10703 10705 10708 10712 10719 10724 10727 10729 10731 10732 10734 10735 10736 10735 10736 10738 10740 10742 10742 10742 10742 10742 10742 10742 10741 10740 10739 10738 10737 10736 10735 10733 10731 10729 10727 10725 10722 10719 10716 10714 10711 10709 10706 10702 10698 10693 10688 10683 10678 10672 10667 10662 10657 10652 10646 10640 10635 10630 10624 10620 10615 10610 10605 10599 10594 10589 10584 10579 10573 10567 10561 10554 10549 10543 10536 10531 10524 10517 10511 10506 10502 10497 10492 10489 10487 10485 10482 10479
10702 10705 10708 10713 10718 10722 10725 10727 10729 10731 10732 10733 10732 10733 10735 10738 10740 10740 10741 10741 10741 10740 10740 10739 10739 10738 10737 10736 10735 10734 10732 10730 10728 10726 10724 10722 10719 10716 10713 10710 10707 10704 10701 10696 10691 10686 10681 10676 10671 10666 10660 10655 10650 10645 10640 10634 10629 10624 10618 10613 10608 10603 10598 10592 10587 10582 10576 10570 10563 10557 10550 10544 10537 10530 10524 10518 10511 10504 10498 10492 10488 10482 10478 10474 10471 10468 10465 10461
10702 10705 10708 10713 10717 10721 10724 10726 10728 10730 10730 10729 10729 10732 10736 10738 10739 10739 10739 10739 10739 10738 10738 10738 10737 10736 10735 10734 10733 10731 10730 10728 10726 10724 10721 10719 10716 10712 10709 10706 10703 10699 10695 10690 10686 10681 10676 10671 10666 10660 10655 10650 10645 10640 10635 10630 10624 10619 10613 10607 10601 10596 10591 10585 10580 10574 10567 10560 10553 10546 10539 10532 10525 10518 10512 10505 10497 10490 10483 10478 10472 10467 10462 10458 10455 10451 10448 10444
10701 10705 10708 10712 10716 10720 10722 10725 10727 10728 10727 10726 10729 10733 10736 10737 10737 10738 10738 10737 10737 10737 10736 10736 10735 10734 10733 10732 10731 10729 10727 10725 10723 10721 10718 10715 10712 10708 10705 10702 10698 10694 10689 10685 10680 10675 10671 10666 10661 10657 10652 10647 10641 10636 10630 10624 10618 10612 10606 10600 10594 10588 10583 10577 10571 10565 10558 10550 10543 10535 10527 10520 10512 10506 10499 10490 10482 10476 10468 10462 10457 10451 10447 10442 10438 10434 10431 10427
10701 10705 10708 10712 10716 10719 10722 10724 10726 10726 10725 10726 10730 10733 10735 10735 10736 10736 10736 10736 10735 10735 10735 10734 10734 10733 10731 10730 10728 10727 10725 10722 10720 10717 10714 10711 10707 10704 10701 10697 10693 10689 10684 10679 10675 10670 10666 10662 10658 10653 10648 10643 10637 10631 10625 10618 10612 10605 10598 10592 10585 10580 10574 10569 10563 10556 10549 10541 10533 10525 10516 10507 10499 10492 10485 10477 10468 10461 10453 10447 10441 10437 10432 10427 10422 10418 10414 10410
10701 10705 10708 10711 10715 10718 10721 10724 10724 10724 10724 10726 10730 10732 10733 10734 10734 10734 10734 10734 10734 10734 10733 10733 10732 10731 10729 10728 10726 10724 10721 10719 10716 10714 10710 10707 10703 10700 10696 10692 10688 10684 10679 10675 10671 10667 10663 10658 10654 10649 10644 10638 10632 10626 10619 10612 10605 10597 10591 10584 10577 10572 10566 10560 10554 10547 10539 10532 10525 10516 10505 10495 10486 10477 10470 10462 10453 10445 10438 10432 10427 10422 10417 10412 10407 10402 10398 10394
10700 10704 10707 10711 10714 10717 10721 10722 10723 10723 10723 10726 10730 10731 10732 10733 10733 10733 10732 10733 10732 10732 10732 10731 10730 10728 10727 10725 10723 10721 10718 10716 10714 10711 10707 10703 10699 10696 10692 10688 10684 10680 10676 10672 10668 10664 10660 10655 10650 10645 10639 10633 10627 10621 10614 10607 10599 10591 10584 10577 10569 10562 10557 10552 10544 10536 10529 10521 10514 10507 10495 10482 10471 10463 10454 10445 10436 10430 10424 10418 10412 10406 10401 10396 10391 10386 10382 10378
10700 10703 10706 10710 10713 10717 10720 10721 10722 10722 10723 10726 10729 10730 10731 10731 10731 10731 10731 10731 10731 10730 10730 10729 10727 10726 10724 10723 10721 10719 10716 10714 10711 10708 10704 10699 10695 10692 10688 10684 10680 10677 10673 10669 10665 10661 10656 10651 10646 10640 10634 10629 10622 10616 10609 10602 10594 10585 10577 10570 10560 10549 10543 10540 10532 10524 10516 10509 10501 10496 10487 10470 10457 10448 10437 10427 10421 10415 10409 10403 10396 10390 10385 10380 10374 10369 10365 10361
10699 10702 10706 10709 10713 10717 10719 10720 10721 10722 10723 10725 10728 10729 10729 10729 10730 10730 10730 10730 10729 10729 10728 10727 10726 10724 10722 10720 10718 10716 10714 10711 10708 10704 10699 10695 10692 10689 10685 10681 10678 10675 10671 10666 10662 10658 10652 10647 10641 10635 10630 10624 10617 10610 10603 10596 10588 10579 10569 10560 10553 10541 10530 10525 10520 10511 10501 10494 10486 10481 10475 10460 10445 10434 10421 10412 10406 10399 10393 10387 10380 10375 10370 10364 10359 10354 10349 10345
10698 10702 10705 10709 10713 10716 10718 10719 10720 10722 10723 10725 10727 10728 10728 10728 10729 10729 10729 10729 10728 10727 10726 10725 10724 10722 10721 10718 10716 10714 10711 10707 10703 10700 10696 10692 10689 10686 10683 10679 10676 10672 10667 10663 10659 10654 10648 10642 10637 10631 10624 10618 10612 10605 10597 10589 10580 10572 10561 10552 10546 10539 10527 10515 10509 10501 10489 10479 10469 10462 10456 10442 10428 10416 10406 10400 10394 10387 10380 10372 10366 10360 10355 10351 10345 10340 10334 10329
10697 10701 10705 10709 10712 10715 10716 10718 10720 10721 10722 10724 10726 10726 10727 10728 10728 10728 10728 10727 10726 10725 10724 10723 10722 10720 10719 10716 10714 10711 10707 10704 10701 10698 10694 10691 10688 10685 10681 10677 10673 10669 10664 10659 10654 10650 10644 10639 10633 10626 10619 10612 10606 10598 10589 10579 10571 10565 10559 10550 10541 10533 10524 10509 10497 10491 10481 10468 10456 10446 10437 10422 10408 10396 10387 10382 10377 10372 10366 10359 10352 10346 10341 10336 10331 10325 10320 10314
10697 10701 10705 10709 10712 10714 10716 10718 10720 10720 10721 10723 10725 10725 10726 10727 10727 10727 10726 10725 10725 10724 10723 10722 10720 10718 10717 10714 10711 10708 10706 10703 10699 10696 10692 10689 10687 10683 10679 10674 10670 10666 10662 10657 10652 10647 10641 10635 10629 10622 10614 10606 10598 10591 10585 10577 10569 10560 10551 10542 10530 10521 10516 10505 10491 10481 10471 10459 10446 10432 10420 10406 10393 10382 10371 10363 10357 10352 10347 10341 10336 10331 10327 10321 10316 10311 10305 10299
10697 10701 10705 10709 10712 10715 10716 10718 10719 10720 10721 10723 10724 10725 10725 10725 10726 10726 10725 10724 10723 10722 10721 10720 10718 10716 10714 10712 10709 10706 10704 10700 10697 10694 10691 10689 10685 10681 10677 10672 10667 10663 10659 10655 10649 10644 10638 10631 10625 10617 10608 10600 10595 10591 10586 10578 10568 10557 10544 10534 10523 10510 10504 10498 10486 10473 10461 10448 10436 10422 10406 10390 10378 10371 10361 10351 10342 10334 10328 10323 10319 10314 10310 10306 10301 10296 10291 10285
10697 10702 10706 10710 10712 10715 10716 10717 10718 10719 10720 10722 10723 10724 10724 10724 10725 10725 10724 10723 10722 10721 10720 10719 10717 10715 10712 10709 10706 10703 10701 10698 10696 10693 10690 10687 10683 10678 10674 10669 10664 10660 10655 10650 10644 10638 10632 10626 10618 10609 10602 10597 10592 10586 10578 10569 10557 10548 10538 10530 10522 10507 10493 10484 10475 10467 10456 10440 10426 10413 10396 10379 10367 10359 10351 10341 10331 10322 10314 10307 10302 10298 10294 10290 10286 10281 10276 10272
10699 10703 10706 10710 10712 10714 10715 10716 10717 10718 10720 10721 10722 10723 10723 10724 10724 10724 10723 10722 10721 10720 10718 10717 10715 10712 10710 10707 10704 10701 10699 10697 10695 10692 10689 10685 10681 10676 10671 10666 10662 10657 10652 10645 10640 10635 10628 10621 10614 10608 10603 10596 10586 10577 10568 10558 10547 10538 10529 10519 10511 10500 10485 10474 10464 10455 10447 10434 10418 10404 10387 10370 10359 10351 10341 10331 10321 10311 10303 10295 10289 10284 10280 10275 10271 10266 10262 10257
10700 10703 10706 10709 10712 10713 10715 10716 10716 10718 10719 10721 10721 10722 10723 10723 10723 10722 10721 10720 10719 10718 10716 10715 10712 10709 10707 10704 10702 10701 10699 10696 10693 10690 10687 10683 10679 10674 10669 10664 10659 10654 10649 10644 10639 10633 10625 10618 10613 10607 10600 10590 10579 10569 10560 10552 10543 10532 10521 10509 10499 10491 10478 10466 10455 10444 10434 10424 10410 10394 10376 10360 10351 10343 10332 10322 10312 10302 10293 10285 10279 10273 10267 10262 10257 10252 10248 10243
10700 10703 10706 10709 10711 10712 10714 10715 10716 10717 10719 10720 10721 10722 10722 10722 10721 10721 10720 10719 10717 10716 10714 10712 10709 10707 10705 10704 10702 10699 10697 10694 10692 10688 10685 10681 10677 10672 10667 10661 10656 10652 10647 10642 10636 10628 10622 10616 10610 10603 10594 10584 10574 10564 10555 10547 10538 10525 10513 10503 10493 10485 10475 10459 10443 10430 10419 10411 10399 10383 10365 10349 10341 10333 10322 10312 10302 10293 10284 10276 10269 10262 10256 10250 10245 10240 10235 10231
10699 10703 10706 10708 10710 10712 10713 10714 10715 10717 10719 10720 10721 10721 10721 10720 10720 10719 10719 10717 10715 10714 10712 10710 10708 10707 10705 10703 10701 10698 10696 10693 10690 10686 10683 10679 10676 10671 10666 10660 10655 10650 10644 10637 10631 10625 10619 10613 10606 10597 10589 10580 10571 10560 10550 10540 10530 10520 10510 10500 10488 10478 10471 10459 10441 10422 10407 10396 10388 10374 10353 10337 10329 10321 10309 10300 10291 10282 10274 10266 10259 10252 10245 10239 10234 10228 10223 10218
10700 10703 10706 10708 10709 10711 10712 10714 10715 10717 10719 10719 10720 10719 10719 10719 10719 10718 10717 10716 10714 10712 10710 10709 10708 10706 10704 10702 10699 10697 10694 10690 10687 10683 10680 10677 10674 10670 10664 10658 10652 10647 10641 10635 10628 10622 10616 10609 10601 10593 10585 10577 10568 10558 10547 10536 10526 10517 10507 10497 10484 10469 10456 10448 10437 10421 10401 10384 10375 10366 10346 10327 10319 10311 10299 10289 10280 10271 10262 10255 10248 10241 10235 10228 10222 10217 10212 10206
10700 10703 10705 10707 10709 10711 10712 10714 10716 10717 10718 10718 10718 10718 10718 10718 10718 10717 10716 10714 10712 10710 10709 10708 10707 10705 10703 10700 10697 10694 10690 10687 10685 10681 10678 10675 10672 10667 10662 10656 10650 10644 10638 10631 10624 10617 10610 10604 10596 10589 10582 10574 10566 10556 10547 10537 10527 10516 10503 10490 10478 10462 10446 10434 10425 10414 10399 10380 10368 10360 10347 10328 10314 10304 10293 10282 10272 10263 10254 10245 10238 10231 10224 10218 10211 10206 10200 10195
10701 10703 10705 10707 10709 10711 10713 10715 10716 10717 10717 10717 10717 10717 10717 10717 10716 10715 10713 10712 10711 10710 10709 10707 10705 10703 10701 10698 10695 10692 10689 10686 10683 10680 10676 10672 10668 10664 10659 10653 10648 10641 10634 10627 10621 10614 10607 10600 10593 10586 10578 10570 10563 10554 10544 10536 10527 10516 10501 10485 10471 10456 10441 10428 10417 10407 10393 10377 10364 10354 10342 10327 10313 10299 10287 10277 10266 10257 10247 10238 10230 10223 10215 10209 10202 10196 10189 10183
10701 10704 10706 10708 10710 10711 10713 10714 10715 10716 10716 10716 10716 10716 10716 10715 10714 10713 10712 10711 10710 10709 10708 10706 10703 10701 10699 10696 10694 10691 10689 10686 10683 10679 10675 10669 10664 10660 10656 10650 10645 10637 10630 10623 10617 10611 10604 10598 10590 10582 10574 10567 10559 10551 10542 10534 10524 10511 10495 10480 10466 10453 10438 10423 10411 10401 10388 10372 10357 10344 10330 10317 10308 10296 10282 10272 10262 10250 10240 10230 10221 10213 10205 10198 10192 10185 10179 10172
10702 10704 10706 10708 10710 10711 10713 10714 10715 10715 10715 10715 10715 10715 10714 10713 10712 10711 10711 10710 10709 10708 10706 10704 10702 10700 10698 10696 10693 10691 10689 10685 10682 10677 10671 10667 10662 10657 10651 10646 10640 10634 10628 10621 10615 10609 10601 10594 10587 10579 10571 10565 10559 10551 10541 10529 10516 10503 10490 10477 10465 10452 10437 10421 10408 10398 10387 10373 10356 10340 10326 10310 10298 10288 10276 10265 10254 10243 10233 10223 10213 10205 10195 10187 10180 10173 10166 10160
10702 10704 10706 10708 10710 10712 10713 10714 10714 10714 10714 10714 10714 10713 10713 10712 10711 10711 10710 10709 10709 10707 10705 10703 10702 10700 10698 10696 10693 10691 10688 10684 10679 10674 10669 10665 10659 10653 10647 10640 10633 10629 10625 10620 10613 10606 10599 10592 10585 10578 10570 10562 10555 10546 10535 10522 10511 10501 10490 10476 10462 10450 10436 10421 10408 10396 10383 10370 10355 10338 10323 10307 10292 10279 10267 10256 10247 10237 10226 10215 10204 10195 10186 10177 10170 10162 10155 10148
10702 10705 10707 10708 10710 10712 10712 10713 10713 10713 10713 10713 10713 10712 10712 10712 10711 10710 10709 10708 10707 10705 10704 10703 10701 10699 10697 10695 10692 10689 10685 10681 10677 10672 10668 10663 10657 10651 10644 10636 10628 10624 10621 10617 10610 10603 10597 10591 10583 10576 10567 10558 10549 10539 10528 10518 10509 10500 10491 10477 10462 10449 10438 10423 10408 10396 10383 10366 10348 10329 10311 10297 10285 10272 10260 10250 10240 10231 10219 10208 10198 10188 10180 10172 10163 10155 10147 10139
10703 10705 10707 10709 10710 10711 10712 10712 10712 10712 10712 10712 10712 10712 10711 10711 10711 10709 10708 10707 10706 10704 10703 10702 10701 10699 10697 10694 10691 10687 10683 10679 10674 10669 10664 10658 10652 10647 10640 10633 10627 10622 10617 10613 10609 10603 10595 10588 10580 10572 10564 10555 10544 10533 10523 10514 10505 10497 10490 10482 10470 10456 10443 10427 10407 10390 10374 10353 10332 10314 10298 10286 10276 10265 10254 10242 10231 10222 10213 10204 10195 10185 10176 10167 10159 10151 10143 10135
10704 10706 10708 10709 10710 10711 10711 10711 10711 10711 10711 10711 10711 10711 10711 10711 10710 10708 10708 10706 10705 10704 10703 10702 10701 10698 10696 10692 10688 10684 10680 10676 10671 10666 10661 10656 10652 10647 10642 10637 10632 10625 10619 10614 10608 10601 10592 10584 10577 10570 10562 10553 10542 10532 10522 10512 10503 10495 10485 10479 10473 10462 10446 10429 10406 10381 10359 10336 10318 10307 10296 10282 10270 10256 10243 10232 10222 10214 10206 10196 10187 10178 10169 10160 10151 10143 10136 10128
10705 10706 10708 10709 10709 10710 10710 10710 10710 10710 10711 10711 10711 10711 10710 10710 10709 10708 10707 10706 10705 10704 10703 10701 10700 10697 10694 10690 10687 10683 10679 10675 10671 10667 10663 10660 10657 10652 10647 10642 10636 10628 10621 10613 10606 10598 10589 10581 10573 10566 10558 10551 10543 10535 10526 10515 10502 10489 10476 10465 10455 10444 10429 10414 10393 10370 10350 10333 10316 10303 10293 10280 10265 10252 10239 10229 10219 10209 10200 10190 10180 10171 10162 10153 10144 10135 10127 10119
10705 10707 10708 10708 10709 10709 10709 10709 10710 10710 10710 10711 10711 10710 10710 10709 10708 10707 10706 10705 10704 10703 10702 10700 10698 10695 10692 10689 10686 10683 10679 10675 10671 10668 10664 10660 10654 10648 10643 10638 10631 10624 10615 10607 10602 10597 10590 10581 10572 10562 10553 10545 10536 10527 10517 10505 10490 10475 10461 10446 10431 10417 10405 10389 10371 10353 10340 10334 10322 10305 10291 10278 10264 10252 10239 10227 10216 10206 10196 10186 10176 10167 10158 10149 10139 10129 10120 10111
10705 10707 10707 10708 10708 10708 10709 10709 10710 10710 10710 10711 10710 10710 10709 10708 10708 10707 10706 10705 10704 10703 10701 10699 10697 10694 10691 10688 10685 10682 10678 10674 10671 10667 10662 10657 10651 10646 10641 10636 10629 10621 10612 10604 10597 10591 10584 10576 10566 10556 10546 10537 10528 10518 10506 10494 10482 10470 10456 10442 10429 10415 10399 10379 10362 10346 10334 10330 10326 10310 10291 10275 10260 10246 10233 10219 10209 10200 10191 10181 10172 10161 10150 10141 10131 10121 10112 10103
10705 10706 10707 10707 10708 10708 10709 10709 10710 10710 10710 10710 10709 10709 10708 10708 10708 10707 10705 10704 10703 10702 10700 10698 10696 10693 10691 10688 10685 10681 10678 10674 10670 10666 10661 10656 10651 10646 10640 10634 10628 10620 10613 10604 10594 10584 10576 10568 10558 10548 10540 10532 10523 10513 10504 10493 10482 10470 10458 10447 10433 10419 10406 10394 10380 10365 10346 10329 10320 10310 10294 10278 10263 10249 10236 10223 10209 10197 10186 10175 10164 10153 10142 10131 10121 10111 10102 10092
10705 10705 10706 10707 10708 10708 10709 10710 10710 10710 10709 10709 10709 10708 10708 10708 10707 10706 10705 10704 10702 10701 10699 10697 10695 10693 10690 10687 10684 10680 10677 10673 10669 10664 10659 10654 10649 10644 10638 10632 10626 10619 10611 10603 10593 10583 10573 10564 10554 10545 10537 10529 10520 10509 10500 10490 10479 10469 10459 10446 10429 10412 10403 10400 10396 10385 10364 10335 10311 10298 10287 10274 10262 10250 10237 10223 10208 10193 10180 10169 10158 10148 10138 10127 10116 10107 10097 10087
10704 10705 10706 10707 10708 10709 10709 10710 10710 10709 10709 10709 10708 10708 10708 10708 10707 10706 10704 10703 10702 10700 10698 10696 10694 10692 10689 10686 10682 10679 10675 10671 10667 10662 10657 10652 10647 10642 10636 10630 10623 10617 10609 10600 10591 10581 10571 10562 10554 10546 10536 10526 10517 10507 10496 10487 10479 10469 10454 10438 10427 10416 10403 10391 10381 10371 10359 10340 10315 10292 10276 10263 10252 10240 10228 10216 10203 10189 10175 10165 10156 10147 10138 10128 10117 10107 10096 10086
10704 10705 10706 10707 10708 10709 10709 10709 10709 10709 10709 10709 10708 10708 10707 10707 10706 10705 10704 10702 10701 10699 10697 10695 10693 10690 10687 10684 10681 10677 10673 10669 10665 10661 10656 10651 10646 10640 10634 10627 10621 10615 10608 10600 10591 10581 10572 10563 10555 10546 10536 10525 10514 10506 10498 10490 10478 10462 10446 10434 10423 10412 10396 10377 10360 10347 10338 10332 10321 10301 10281 10264 10247 10232 10219 10207 10196 10185 10175 10165 10155 10147 10139 10130 10120 10108 10097 10086
10704 10705 10706 10707 10708 10709 10709 10709 10709 10709 10709 10709 10708 10707 10707 10707 10706 10704 10703 10702 10700 10698 10696 10694 10692 10689 10686 10683 10679 10675 10672 10668 10664 10659 10655 10649 10643 10637 10631 10625 10619 10612 10606 10599 10590 10582 10572 10563 10553 10543 10534 10525 10518 10510 10500 10489 10478 10464 10455 10445 10430 10414 10396 10377 10360 10347 10334 10322 10313 10299 10280 10260 10241 10225 10211 10199 10190 10182 10172 10162 10152 10144 10135 10127 10118 10107 10096 10086
10704 10705 10706 10707 10708 10708 10708 10708 10709 10709 10709 10709 10708 10707 10707 10706 10705 10704 10703 10701 10699 10697 10695 10693 10691 10688 10685 10681 10678 10674 10671 10667 10663 10658 10653 10647 10641 10635 10629 10623 10616 10610 10604 10598 10591 10583 10573 10563 10553 10543 10535 10526 10516 10507 10498 10489 10482 10474 10463 10450 10438 10425 10410 10393 10374 10357 10338 10317 10298 10285 10272 10257 10239 10222 10208 10197 10188 10179 10169 10159 10148 10138 10129 10120 10112 10103 10094 10084
10704 10705 10706 10707 10708 10708 10708 10708 10709 10709 10709 10708 10707 10707 10706 10706 10705 10703 10702 10700 10698 10696 10694 10692 10690 10687 10684 10680 10677 10673 10669 10665 10661 10656 10651 10646 10640 10634 10628 10621 10614 10607 10601 10596 10590 10583 10574 10564 10554 10545 10537 10526 10514 10505 10499 10492 10483 10471 10458 10444 10432 10419 10405 10394 10381 10364 10347 10327 10304 10285 10269 10253 10238 10225 10212 10200 10188 10177 10168 10158 10147 10136 10125 10115 10106 10097 10089 10080
10704 10705 10706 10707 10708 10708 10709 10708 10709 10709 10709 10708 10707 10706 10706 10705 10704 10702 10700 10699 10697 10695 10693 10691 10688 10685 10682 10679 10675 10671 10667 10663 10659 10654 10649 10644 10639 10633 10627 10620 10613 10605 10598 10592 10587 10582 10576 10568 10559 10548 10537 10528 10520 10510 10500 10491 10480 10467 10454 10441 10427 10412 10397 10383 10370 10359 10351 10341 10324 10304 10283 10264 10248 10235 10220 10205 10190 10177 10167 10156 10145 10134 10123 10112 10103 10094 10085 10076
10704 10705 10706 10707 10708 10709 10709 10708 10709 10709 10708 10707 10706 10706 10705 10704 10703 10701 10699 10698 10696 10694 10692 10690 10687 10684 10681 10677 10674 10670 10666 10662 10657 10653 10648 10643 10638 10632 10626 10619 10612 10604 10596 10588 10582 10577 10574 10569 10563 10555 10545 10535 10526 10514 10500 10487 10476 10465 10452 10438 10424 10411 10397 10383 10370 10357 10346 10337 10328 10313 10294 10278 10263 10244 10227 10212 10197 10181 10167 10155 10145 10134 10123 10113 10103 10093 10083 10074
10704 10705 10705 10706 10707 10708 10709 10709 10709 10708 10707 10706 10706 10706 10705 10703 10702 10700 10699 10697 10695 10693 10691 10688 10686 10683 10680 10676 10673 10669 10665 10661 10657 10652 10647 10642 10637 10631 10625 10618 10611 10603 10595 10586 10578 10571 10566 10561 10556 10552 10547 10539 10528 10515 10501 10484 10470 10457 10445 10434 10423 10412 10402 10392 10382 10367 10349 10335 10327 10316 10300 10284 10267 10250 10234 10220 10204 10188 10172 10157 10145 10134 10124 10114 10102 10091 10081 10072
10704 10705 10705 10706 10707 10708 10708 10708 10708 10707 10706 10706 10706 10705 10704 10703 10701 10699 10698 10696 10694 10692 10690 10687 10684 10681 10678 10675 10671 10667 10664 10660 10656 10651 10646 10641 10635 10630 10624 10617 10610 10603 10595 10586 10576 10567 10559 10552 10545 10537 10528 10519 10508 10498 10487 10475 10464 10452 10442 10434 10425 10416 10407 10397 10386 10373 10356 10338 10324 10314 10302 10287 10273 10259 10244 10226 10211 10196 10180 10163 10148 10135 10123 10111 10100 10090 10081 10071
10704 10705 10705 10706 10707 10707 10708 10708 10708 10707 10706 10706 10705 10704 10703 10702 10700 10699 10697 10695 10693 10691 10689 10686 10683 10680 10677 10673 10670 10666 10663 10659 10655 10650 10645 10640 10634 10628 10623 10617 10610 10602 10595 10587 10578 10568 10558 10548 10540 10531 10520 10510 10501 10491 10482 10473 10465 10455 10446 10437 10428 10417 10408 10397 10385 10373 10362 10349 10332 10314 10300 10287 10273 10259 10245 10230 10213 10195 10180 10166 10151 10137 10124 10112 10101 10090 10080 10070
10704 10705 10705 10706 10706 10707 10707 10707 10707 10706 10706 10705 10704 10703 10702 10701 10699 10698 10696 10694 10692 10690 10687 10685 10682 10679 10676 10672 10669 10665 10661 10658 10653 10649 10644 10639 10634 10628 10622 10616 10609 10602 10594 10587 10579 10570 10560 10550 10540 10531 10522 10514 10506 10497 10486 10477 10468 10459 10449 10440 10430 10419 10409 10400 10387 10372 10361 10350 10334 10315 10301 10288 10272 10257 10242 10227 10210 10192 10177 10163 10148 10135 10123 10111 10099 10088 10077 10068
10704 10704 10705 10705 10706 10706 10706 10706 10706 10705 10705 10704 10704 10702 10701 10700 10698 10697 10695 10693 10691 10689 10686 10684 10681 10678 10674 10671 10668 10664 10660 10656 10651 10647 10642 10637 10633 10628 10622 10615 10609 10602 10595 10587 10580 10572 10563 10553 10543 10534 10526 10516 10508 10500 10491 10482 10472 10461 10451 10442 10434 10425 10414 10401 10387 10373 10358 10342 10326 10313 10300 10286 10274 10261 10245 10225 10206 10189 10174 10160 10146 10134 10122 10110 10099 10089 10079 10071
10704 10704 10705 10705 10705 10706 10706 10705 10705 10704 10704 10703 10702 10701 10700 10698 10697 10696 10694 10692 10690 10688 10685 10682 10680 10677 10673 10670 10666 10662 10658 10654 10650 10645 10641 10636 10631 10626 10621 10615 10609 10602 10595 10587 10580 10573 10565 10556 10547 10537 10528 10519 10511 10503 10495 10486 10474 10463 10454 10446 10436 10425 10413 10399 10386 10374 10360 10345 10331 10319 10305 10293 10281 10266 10247 10229 10214 10199 10184 10170 10157 10143 10129 10115 10104 10094 10085 10075
10703 10704 10704 10705 10705 10705 10705 10704 10704 10704 10703 10702 10701 10700 10699 10697 10696 10694 10693 10691 10689 10686 10684 10681 10678 10675 10672 10668 10664 10661 10657 10653 10649 10644 10640 10635 10630 10625 10619 10614 10607 10601 10594 10587 10580 10573 10566 10558 10549 10540 10531 10523 10514 10504 10496 10487 10476 10468 10459 10447 10437 10427 10415 10401 10388 10376 10363 10349 10336 10325 10316 10306 10290 10270 10252 10237 10225 10212 10199 10184 10169 10153 10138 10124 10111 10100 10090 10079
10703 10703 10704 10704 10704 10704 10704 10703 10703 10703 10702 10701 10700 10699 10698 10696 10695 10693 10692 10690 10688 10685 10683 10680 10677 10674 10670 10667 10663 10659 10656 10652 10648 10643 10639 10634 10629 10624 10618 10612 10606 10599 10592 10586 10579 10573 10566 10559 10551 10543 10534 10525 10516 10507 10498 10487 10479 10473 10463 10450 10438 10427 10412 10397 10383 10370 10358 10348 10337 10326 10314 10299 10284 10272 10259 10244 10231 10220 10207 10192 10176 10159 10145 10132 10120 10107 10095 10084
10702 10703 10703 10703 10703 10703 10703 10702 10702 10701 10701 10700 10699 10698 10697 10695 10694 10692 10690 10688 10686 10684 10681 10678 10675 10672 10669 10665 10661 10658 10654 10650 10647 10642 10638 10633 10627 10622 10616 10610 10604 10598 10592 10585 10579 10572 10566 10559 10552 10545 10536 10527 10517 10507 10498 10491 10486 10477 10462 10449 10436 10423 10411 10401 10388 10374 10360 10347 10333 10319 10303 10288 10277 10269 10259 10246 10233 10221 10208 10194 10179 10165 10151 10138 10125 10112 10100 10088